This is the latest recevied weather packets stored in our database for station/object EA7JCM-13. If no packets are shown the sender has not sent any weather packets the latest 10 day(s).
| Time | Temp. | Humidity | Pressure | Rain* | Wind** | Luminosity | Snow |
|---|---|---|---|---|---|---|---|
| 1777242004 | 17.78° C | 62% | 1013.1 hPa | 0 mm | - | - | - |
| 1777241704 | 17.22° C | 63% | 1013.1 hPa | 0 mm | - | - | - |
| 1777241404 | 17.22° C | 62% | 1013.1 hPa | 0 mm | - | - | - |
| 1777241104 | 17.78° C | 61% | 1013 hPa | 0 mm | - | - | - |
| 1777240806 | 17.78° C | 61% | 1013 hPa | 0 mm | - | - | - |
| 1777240504 | 17.78° C | 61% | 1013.1 hPa | 0 mm | - | - | - |
| 1777240204 | 17.22° C | 61% | 1013.1 hPa | 0 mm | - | - | - |
| 1777239903 | 17.78° C | 61% | 1013 hPa | 0 mm | - | - | - |
| 1777239605 | 18.33° C | 59% | 1013 hPa | 0 mm | - | - | - |
| 1777239304 | 18.33° C | 57% | 1013 hPa | 0 mm | - | - | - |
| 1777239004 | 18.33° C | 57% | 1013.1 hPa | 0 mm | - | - | - |
| 1777238704 | 18.33° C | 57% | 1013 hPa | 0 mm | - | - | - |
| 1777238402 | 18.33° C | 57% | 1013 hPa | 0 mm | - | - | - |
| 1777238102 | 18.89° C | 57% | 1012.9 hPa | 0 mm | - | - | - |
| 1777237802 | 18.33° C | 57% | 1012.9 hPa | 0 mm | - | - | - |
| 1777237502 | 18.89° C | 57% | 1012.6 hPa | 0 mm | - | - | - |
| 1777237202 | 18.89° C | 56% | 1012.9 hPa | 0 mm | - | - | - |
| 1777236903 | 18.89° C | 56% | 1012.7 hPa | 0 mm | - | - | - |
| 1777236603 | 18.89° C | 55% | 1012.6 hPa | 0 mm | - | - | - |
| 1777236302 | 19.44° C | 53% | 1012.6 hPa | 0 mm | - | - | - |
| 1777236002 | 19.44° C | 53% | 1012.8 hPa | 0 mm | - | - | - |
| 1777235702 | 20° C | 51% | 1013 hPa | 0 mm | - | - | - |
| 1777235402 | 20° C | 51% | 1012.6 hPa | 0 mm | - | - | - |
| 1777235102 | 19.44° C | 52% | 1012.7 hPa | 0 mm | - | - | - |
| 1777234803 | 19.44° C | 51% | 1012.5 hPa | 0 mm | - | - | - |
* Rain latest hour (hover to see other rain measurements)
** Current wind speed in m/s (hover to see current wind gust speed)